Flag for Turkey Weather past 2 weeks in Gaziantep, Turkey

Now
73 °F

Clear.


Feels Like: 77 °F
Forecast: 71 / 99 °F
Wind: No wind

Location: Gaziantep Airport

Current Time: Aug 22, 2014 at 7:17:45 AM

Latest Report: Aug 22, 2014 at 6:50 AM


Visibility: 10 mi

Pressure: 29.83 "Hg

Humidity: 57%

Dew point: 57 °F

Location of GaziantepLocation

Historic Weather in Gaziantep — Graph

°F

Gaziantep temperature yesterday

Maximum temperature yesterday: 95 °F (at 5:20 PM)
Minimum temperature yesterday: 55 °F (at 5:50 AM)
Average temperature yesterday: 79 °F

Past Weeks' High & Low Weather Summary

 TemperatureHumidityPressure
High106 °F (Aug 16, 2:50 PM)82% (Aug 21, 5:50 AM)29.95 "Hg (Aug 21, 5:50 AM)
Low55 °F (Aug 21, 5:50 AM)8% (Aug 16, 2:50 PM)29.59 "Hg (Aug 17, 3:50 PM)
Average86 °F36%29.77 "Hg
* Reported Aug 7 5:50 AM — Aug 22 5:50 AM, Gaziantep, Weather by CustomWeather, © 2014

Note: Actual official high and low records may vary slightly from our data, if they occured in-between our weather recording intervals... More about our weather records

Advertising

Gaziantep weather history for previous 24 hours

 ConditionsComfort  
Time TempWeatherWind HumidityBarometerVisibility
5:50 AM
Aug 22
72 °FClear.No wind65%29.83 "Hg10 mi
5:20 AM72 °FClear.No wind65%29.83 "Hg10 mi
4:50 AM72 °FClear.No wind65%29.83 "Hg10 mi
4:20 AM75 °FClear.No wind57%29.83 "Hg10 mi
3:50 AM72 °FClear.2 mph65%29.83 "Hg10 mi
3:20 AM77 °FClear.3 mph57%29.83 "Hg10 mi
2:50 AM77 °FClear.3 mph57%29.83 "Hg10 mi
2:20 AM79 °FClear.3 mph54%29.83 "Hg10 mi
1:50 AM79 °FClear.3 mph54%29.83 "Hg10 mi
1:20 AM81 °FClear.3 mph51%29.83 "Hg10 mi
12:50 AM81 °FClear.3 mph48%29.86 "Hg10 mi
12:20 AM79 °FClear.No wind48%29.86 "Hg10 mi
11:50 PM
Aug 21
77 °FClear.2 mph51%29.86 "Hg10 mi
11:20 PM79 °FClear.3 mph48%29.86 "Hg10 mi
10:50 PM81 °FClear.2 mph45%29.86 "Hg10 mi
10:20 PM82 °FClear.2 mph42%29.86 "Hg10 mi
9:50 PM84 °FClear.5 mph40%29.86 "Hg10 mi
9:20 PM84 °FPassing clouds.3 mph40%29.86 "HgN/A
8:50 PM84 °FClear.9 mph45%29.86 "Hg10 mi
8:20 PM86 °FClear.14 mph46%29.86 "Hg10 mi
7:50 PM86 °FSunny.12 mph46%29.86 "Hg10 mi
7:20 PM88 °FPassing clouds.10 mph40%29.86 "HgN/A
6:50 PM90 °FScattered clouds.9 mph33%29.86 "HgN/A
6:20 PM93 °FScattered clouds.2 mph12%29.86 "HgN/A
5:50 PM95 °FScattered clouds.2 mph10%29.86 "HgN/A
5:20 PM95 °FScattered clouds.No wind10%29.86 "HgN/A
4:50 PM93 °FScattered clouds.3 mph11%29.86 "HgN/A
4:20 PM93 °FScattered clouds.1 mph11%29.86 "HgN/A
3:50 PM93 °FScattered clouds.2 mph11%29.89 "HgN/A
3:20 PM93 °FPassing clouds.3 mph12%29.89 "HgN/A
2:50 PM93 °FPassing clouds.5 mph14%29.89 "HgN/A
2:20 PM93 °FSunny.5 mph15%29.89 "Hg10 mi
1:50 PM91 °FPassing clouds.5 mph18%29.92 "HgN/A
1:20 PM90 °FPassing clouds.5 mph22%29.92 "HgN/A
12:50 PM90 °FSunny.3 mph26%29.92 "Hg10 mi
12:20 PM88 °FSunny.3 mph29%29.92 "Hg10 mi
11:50 AM86 °FSunny.8 mph33%29.92 "Hg10 mi
11:20 AM86 °FSunny.2 mph35%29.92 "Hg10 mi
10:50 AM84 °FPassing clouds.3 mph40%29.95 "HgN/A
10:20 AM84 °FSunny.2 mph40%29.95 "Hg10 mi
9:50 AM82 °FSunny.No wind42%29.95 "Hg10 mi
9:20 AM79 °FSunny.No wind48%29.95 "Hg10 mi
8:50 AM77 °FSunny.No wind51%29.95 "Hg10 mi
8:20 AM75 °FSunny.No wind50%29.95 "Hg10 mi
7:50 AM68 °FSunny.No wind60%29.92 "Hg10 mi
7:20 AM66 °FSunny.No wind60%29.92 "Hg10 mi
Weather by CustomWeather, © 2014

See weather overviewHow to use our weather pages